Theta_e
281 281 283 285 286 285 284 283 280 282 284 285 286 287 287 287 287 287 287 287 287 287 287 286 286 285 285 284 285 284 283 283 283 283 283 282 282 282 283 283 284 284 285 285
279 282 284 283 285 286 286 286 285 285 285 287 287 288 287 286 287 287 287 287 286 286 286 284 284 283 283 282 282 282 281 281 281 281 281 280 280 280 281 281 282 282 282 283
273 280 282 279 282 283 284 286 287 283 287 285 284 286 285 286 287 287 287 286 285 285 284 283 281 281 280 281 281 281 280 280 279 279 279 279 279 279 279 279 280 280 281 282
275 277 275 281 281 286 286 284 285 284 285 285 286 286 286 287 286 286 286 285 284 282 282 281 280 280 280 280 279 279 278 278 278 278 278 278 278 278 278 278 278 279 280 281
275 269 275 277 279 283 284 281 283 283 283 285 285 285 283 286 286 285 284 283 282 281 281 279 278 278 278 278 277 277 276 276 276 276 276 276 276 276 277 277 277 278 279 279
266 269 266 276 280 283 285 279 283 284 284 284 284 280 281 285 284 283 282 282 279 279 279 277 277 277 277 276 276 274 275 275 275 275 275 274 275 275 276 276 277 278 278 279
269 271 273 277 280 282 276 279 283 284 285 285 281 281 283 283 281 281 281 280 277 276 276 276 277 276 275 275 273 274 274 273 273 273 273 274 274 274 274 275 275 275 277 278
262 265 271 279 280 278 281 282 283 282 282 282 282 281 281 280 280 279 277 277 277 274 275 275 275 274 273 272 272 272 271 271 270 271 272 273 272 272 273 273 273 274 275 275
273 273 279 281 282 283 282 281 281 282 283 283 282 281 280 278 278 277 276 276 275 273 273 273 273 272 270 270 270 270 268 267 269 270 271 271 270 270 270 271 271 272 273 273
276 277 278 280 282 281 282 282 283 283 282 281 280 280 279 278 277 275 274 273 272 271 270 270 270 270 269 269 268 265 265 267 268 268 268 268 269 269 269 270 270 271 272 272
273 279 278 280 282 282 282 282 281 281 280 279 279 278 277 276 274 273 272 271 269 268 268 268 267 267 265 266 265 264 265 266 266 267 266 266 267 268 269 271 272 272 272 273
273 279 280 280 281 282 281 280 280 278 277 277 277 276 274 272 271 270 269 268 267 266 265 264 263 263 263 262 262 261 263 264 264 264 264 265 265 266 271 273 274 275 276 275
277 278 279 279 277 276 277 276 274 275 274 273 272 272 270 269 268 268 265 265 264 263 262 260 260 259 259 259 258 258 259 261 262 263 263 263 264 264 263 267 272 273 273 274
276 279 277 276 278 278 276 274 271 269 268 270 268 265 265 264 263 261 261 260 258 257 257 255 254 256 258 256 255 256 257 260 261 262 262 263 263 263 264 263 263 264 268 270
274 270 275 275 272 269 268 268 267 268 266 264 261 263 262 261 260 260 256 255 255 253 252 252 252 256 255 254 255 255 257 259 260 262 262 262 262 263 263 263 262 262 263 266
262 263 265 272 271 267 266 264 266 264 260 260 259 258 260 258 255 253 252 251 255 255 253 251 252 255 254 252 252 253 255 259 259 259 259 260 261 261 261 261 261 261 261 261
268 266 263 263 266 265 267 266 268 266 262 262 262 258 254 253 251 251 252 250 249 250 252 250 254 254 252 251 250 253 256 256 257 255 255 258 259 259 259 260 259 260 260 261
264 267 269 271 270 266 261 259 260 262 261 261 257 254 252 252 256 253 251 248 250 252 251 253 253 254 251 250 250 254 253 254 253 254 257 257 257 258 258 258 258 258 259 260
261 264 267 266 269 268 266 263 261 259 257 257 256 256 255 253 252 251 247 248 249 251 255 251 258 254 252 253 258 251 251 251 253 252 252 255 256 256 256 257 257 257 257 258
260 258 260 258 260 265 263 257 261 258 255 256 253 253 255 254 251 250 247 251 255 257 252 252 251 250 251 250 255 250 248 249 251 253 253 254 254 255 256 256 256 256 257 257
266 260 262 264 262 256 262 261 260 259 257 256 257 258 258 253 250 250 250 253 256 253 251 254 250 252 250 252 253 248 247 249 249 251 252 253 254 254 255 255 256 256 256 257
259 262 262 261 261 262 256 257 258 258 257 256 254 252 253 255 253 252 254 256 254 254 250 249 250 251 252 255 248 247 248 248 249 249 249 251 253 253 254 255 255 256 257 257
264 262 263 262 263 262 258 257 258 259 259 258 257 256 257 257 256 254 256 254 250 250 250 250 252 257 258 249 247 246 248 249 249 250 251 252 253 254 254 255 255 256 256 256
263 264 266 262 259 257 259 258 258 257 257 255 256 257 257 255 254 254 252 252 253 252 250 251 254 263 257 248 248 249 249 249 250 250 252 253 253 253 254 254 254 255 255 255
263 261 260 261 261 264 260 259 257 253 254 254 255 256 256 255 257 254 254 254 255 253 250 253 259 258 248 247 248 249 249 250 250 251 252 252 252 252 252 253 253 253 253 254
261 265 266 266 265 261 261 259 260 258 258 258 258 257 257 254 255 255 255 253 250 250 249 249 248 248 249 249 249 249 251 251 251 251 251 251 251 251 251 251 251 252 252 252
260 262 261 260 261 262 262 261 261 260 261 261 260 258 258 255 254 254 253 252 249 248 248 247 248 249 248 249 249 250 250 250 251 251 251 251 251 250 250 250 250 251 251 251
Wind_Speed
2 3 1 2 6 5 3 3 4 6 13 8 6 10 8 8 8 9 7 7 6 5 4 2 1 1 3 3 4 5 5 6 9 9 9 9 10 11 12 11 11 12 14 13
5 7 2 1 6 13 7 5 4 9 3 1 5 7 7 7 7 7 6 5 4 3 2 1 2 4 4 5 6 6 6 9 9 11 11 11 12 12 11 12 14 14 15 16
3 4 4 4 7 7 5 4 9 6 6 8 7 9 7 6 6 6 5 4 4 3 1 2 4 5 7 8 9 11 11 11 11 12 12 12 12 13 14 15 15 16 16 16
1 3 3 4 4 4 9 3 2 7 14 11 10 7 6 3 6 7 5 3 3 1 2 5 7 10 9 9 10 10 11 11 11 11 12 13 13 14 15 14 15 15 15 16
4 3 4 2 3 5 6 4 2 10 9 11 11 6 1 2 3 5 4 3 3 5 6 7 9 9 10 9 8 8 11 11 11 12 13 14 14 15 15 15 15 14 15 17
1 5 6 3 1 1 1 2 8 7 14 17 10 6 4 5 5 4 4 5 6 7 5 7 8 8 7 7 7 10 10 11 11 12 12 13 13 14 13 14 15 13 15 14
1 1 6 5 4 3 7 6 6 9 11 12 4 1 6 7 4 3 4 6 6 6 5 5 6 6 7 6 8 9 10 10 11 12 12 12 12 12 14 14 14 14 16 15
3 3 5 1 1 5 3 4 7 6 5 6 7 7 6 6 6 5 4 3 4 4 4 5 7 7 6 6 8 8 9 11 11 11 10 10 13 12 14 13 14 15 16 16
7 5 2 2 3 2 2 5 4 7 5 7 7 5 7 6 6 5 5 5 5 6 6 5 5 4 6 7 8 10 9 9 10 11 10 11 12 12 11 11 11 12 12 14
3 3 6 5 1 2 4 5 6 5 6 7 7 7 6 5 4 4 4 5 5 4 3 3 2 3 3 5 7 6 8 10 10 10 11 11 9 8 9 9 10 11 12 13
4 6 2 4 5 6 6 7 7 5 5 6 7 5 5 4 3 4 4 2 2 2 3 4 4 3 3 7 9 10 8 8 9 8 9 10 8 8 9 9 11 12 11 12
7 7 6 4 8 8 9 8 8 8 5 4 4 7 5 4 3 2 1 1 2 3 4 4 4 6 7 7 6 6 8 7 7 7 8 8 9 10 15 19 22 22 23 19
5 4 2 4 5 3 7 6 4 6 4 7 4 5 4 4 4 1 0 2 3 4 3 3 6 7 6 6 5 5 5 8 7 7 7 8 9 10 13 15 21 21 22 25
2 8 5 1 5 6 6 7 6 6 5 5 6 3 3 3 3 2 4 4 4 2 5 5 4 5 6 6 4 5 6 8 7 7 7 8 8 9 9 11 14 14 17 22
4 3 3 7 7 6 5 5 5 7 5 4 2 4 3 4 4 5 4 1 3 3 2 3 3 6 4 4 5 6 6 5 5 6 6 8 8 8 8 10 11 12 14 21
4 5 4 8 10 8 7 4 6 3 2 2 3 4 6 6 5 2 3 2 3 3 4 3 4 5 5 3 4 4 4 7 6 6 7 7 7 8 9 9 11 11 11 12
7 2 2 2 8 9 10 7 7 9 6 7 9 6 5 2 2 1 3 2 2 4 4 4 6 5 5 4 3 4 4 5 7 5 4 6 7 8 9 9 10 11 11 11
2 2 4 6 11 9 5 5 6 8 7 7 6 5 4 4 4 4 3 3 5 4 3 5 4 6 4 4 4 4 3 5 4 5 6 7 7 8 8 9 9 10 12 12
4 4 6 6 9 9 8 9 8 6 6 7 7 6 5 4 4 3 2 1 1 1 4 3 7 5 6 7 6 2 3 4 5 5 4 8 8 7 8 9 10 10 10 11
3 2 5 4 4 7 8 4 8 7 5 6 5 4 5 5 4 3 2 4 5 4 1 4 3 4 5 6 7 3 3 4 5 6 5 7 7 9 9 10 10 10 10 10
8 5 6 8 8 5 6 8 9 8 8 6 7 7 6 4 4 4 3 2 3 3 3 5 3 4 3 5 4 3 3 4 4 6 7 7 8 8 9 9 10 10 10 9
4 6 7 7 7 6 4 4 5 5 7 6 4 4 5 5 5 5 5 4 2 2 3 3 3 6 5 6 2 3 4 5 5 5 5 5 7 9 9 10 10 10 10 10
6 6 6 8 8 5 4 4 5 5 7 7 7 7 7 3 3 3 2 3 2 4 3 3 6 8 5 3 3 3 5 5 5 4 5 6 7 8 9 10 10 11 11 11
4 7 7 4 5 4 7 7 6 5 4 4 4 4 4 2 2 3 1 2 4 4 3 4 5 7 5 2 3 4 5 5 5 5 6 8 7 8 8 9 10 10 10 12
6 4 5 7 8 9 5 6 5 4 4 3 3 4 5 2 3 2 3 3 4 2 4 5 6 7 3 3 4 5 5 5 5 6 7 7 7 8 8 9 9 10 10 10
6 7 7 10 6 4 5 6 5 5 5 4 3 4 4 4 3 3 2 2 3 3 2 3 3 4 4 4 5 5 6 6 6 6 7 8 8 8 9 9 10 10 10 10
2 3 2 1 3 5 6 6 6 6 7 6 4 6 6 4 3 2 2 2 2 2 3 3 3 4 4 4 5 6 6 6 7 7 7 8 8 8 9 9 10 10 10 10
Wind_Direction
50 321 309 158 165 134 129 170 154 169 169 176 162 145 137 122 110 103 92 84 79 79 81 20 315 349 352 355 356 341 348 13 8 354 348 337 338 338 337 334 327 322 320 321
10 5 163 172 195 176 158 103 96 123 118 140 106 101 111 112 112 116 122 118 103 103 155 214 22 17 2 356 6 358 359 8 3 355 346 341 339 334 331 331 334 328 325 319
259 345 36 338 214 169 139 147 150 153 183 151 122 124 132 138 134 136 142 132 117 125 70 51 31 17 14 4 1 6 2 2 359 350 340 339 336 338 340 335 331 328 322 319
134 32 187 268 313 192 124 71 112 94 145 150 138 120 122 127 147 149 139 97 87 56 50 34 23 19 6 10 6 358 360 358 347 338 337 342 340 338 337 332 329 319 316 315
157 187 288 4 195 151 143 220 227 134 122 122 124 92 91 127 97 119 122 104 61 30 31 23 21 7 6 4 358 357 354 346 338 341 343 342 336 333 330 323 316 316 315 315
63 136 191 208 158 286 223 274 189 157 150 150 156 161 202 156 134 112 74 56 44 27 24 23 10 9 359 359 360 349 343 333 335 344 341 333 329 328 318 312 315 314 311 311
80 227 290 242 263 287 114 232 129 144 152 155 154 157 130 120 88 77 56 56 44 35 24 8 9 355 6 354 354 335 327 333 342 338 333 326 326 321 318 318 316 318 317 319
88 60 271 309 51 166 194 53 111 110 115 122 121 126 125 132 125 121 106 67 50 36 26 16 22 5 348 352 333 321 335 346 336 330 334 329 326 321 323 321 325 325 322 320
186 213 249 269 285 9 87 114 115 112 124 135 140 157 153 140 133 114 71 38 22 24 9 358 27 360 335 329 335 348 347 331 329 327 326 329 327 323 320 327 325 323 322 319
67 251 231 243 73 114 119 110 128 127 140 147 153 158 146 139 123 92 58 36 22 343 321 334 350 317 311 338 351 349 337 333 331 331 328 324 319 315 317 318 319 315 320 318
268 263 324 231 203 165 123 124 124 119 133 144 139 141 133 116 98 58 55 55 280 309 309 295 302 318 350 9 6 353 335 324 326 322 314 311 307 310 308 303 303 316 313 312
216 212 170 205 183 161 149 164 156 139 121 95 127 128 115 126 106 129 212 315 311 288 282 284 323 352 5 7 1 338 330 324 315 308 312 311 313 310 306 312 317 318 319 321
188 142 93 85 95 102 136 143 110 115 119 134 61 104 120 164 167 137 300 253 246 255 268 346 6 356 338 335 344 327 300 300 304 310 310 313 313 316 319 320 319 324 324 325
127 113 48 294 181 139 108 94 88 87 83 119 144 136 117 127 64 211 226 234 250 318 6 11 352 321 319 327 311 293 296 295 290 296 300 306 307 308 309 315 319 320 325 323
165 22 209 115 90 92 85 115 121 154 158 144 76 133 133 183 212 220 237 264 353 39 351 350 339 303 291 301 319 311 300 291 292 301 300 301 303 310 311 312 314 315 322 328
126 92 71 144 160 151 132 148 143 176 162 183 170 188 198 197 204 288 338 23 71 296 293 292 277 271 301 306 293 280 269 284 314 309 313 311 313 316 317 319 321 321 320 318
106 122 90 139 174 180 192 177 172 173 170 184 201 184 163 106 28 310 293 299 255 261 249 232 263 296 292 290 283 287 298 308 304 297 284 306 310 315 318 314 308 307 307 310
108 154 163 156 176 169 195 195 168 167 184 194 164 155 140 163 211 223 250 332 333 323 263 243 269 281 296 291 284 279 288 292 288 291 306 313 313 307 302 301 302 305 308 310
189 205 187 172 170 169 167 173 184 172 163 158 153 194 200 198 204 220 39 19 233 244 259 262 297 338 306 300 295 285 284 289 307 303 287 303 309 303 301 303 303 303 304 308
162 167 159 172 151 154 169 197 161 170 172 156 138 154 211 226 194 200 161 238 217 208 230 275 272 277 279 280 295 263 302 312 301 302 306 308 302 305 304 298 297 301 306 308
189 176 168 167 179 196 186 159 159 177 176 171 182 198 206 168 168 172 189 221 244 222 269 290 282 283 281 289 296 321 314 309 306 299 302 301 300 297 297 300 302 305 305 305
178 180 188 180 185 197 190 150 146 141 157 179 184 161 173 215 191 211 227 202 235 305 313 296 289 282 276 295 326 311 307 292 278 275 272 284 296 301 304 304 303 305 305 304
180 182 182 193 198 204 144 172 185 176 181 191 188 199 201 190 163 151 258 214 220 273 258 270 279 285 298 340 306 287 283 278 278 277 285 289 291 296 298 300 302 303 304 305
184 197 209 146 130 129 195 204 194 194 193 186 183 180 159 172 268 223 224 259 266 278 267 274 289 307 334 289 297 284 277 274 279 277 286 282 287 293 296 299 301 301 301 303
191 166 151 175 199 218 168 156 147 170 180 180 179 193 202 193 164 190 181 234 266 268 254 269 303 321 305 283 280 281 284 281 284 290 290 291 292 293 294 295 295 298 299 299
181 207 210 205 213 149 163 163 184 173 166 188 192 176 182 187 193 197 197 227 249 282 295 303 298 291 288 289 285 286 287 288 289 289 287 289 289 289 291 292 293 293 294 294
191 151 142 163 189 172 173 178 175 192 188 177 177 176 175 162 161 164 199 245 279 291 278 278 272 275 274 279 281 282 281 282 282 289 292 290 290 288 290 290 290 290 291 290